N7BDR Weather Reports


time (UTC)temp
C
wind
direction
speed
KPH
gust
KPH
rain 1hr
cm
rain 24hr
cm
rain mn
cm
humidity
%
barometer
mb
20260507074027 12 175 4.8 22.5 0.00 0.41 0.00 40 1016.8
20260507073521 12 169 4.8 22.5 0.00 0.41 0.00 39 1016.8
20260507073009 12 174 6.4 22.5 0.00 0.41 0.00 38 1016.8
20260507072504 12 251 6.4 22.5 0.00 0.41 0.00 38 1016.9
20260507071947 12 245 6.4 19.3 0.00 0.41 0.00 37 1017.0
20260507071452 12 162 6.4 19.3 0.00 0.41 0.00 37 1017.0
20260507070949 12 251 4.8 17.7 0.00 0.41 0.00 36 1017.0
20260507070456 12 230 3.2 12.9 0.00 0.41 0.00 36 1017.1
20260507065955 12 253 1.6 12.9 0.00 0.41 0.00 35 1017.1
20260507065457 12 259 1.6 11.3 0.00 0.41 0.00 36 1017.1
20260507064945 12 247 1.6 11.3 0.00 0.41 0.00 37 1017.1
20260507063836 11 235 0.0 9.7 0.00 0.41 0.00 40 1017.2
20260507063344 11 241 1.6 9.7 0.00 0.41 0.00 40 1017.3
20260507062851 11 225 0.0 9.7 0.00 0.41 0.00 41 1017.3
20260507062342 11 246 0.0 4.8 0.00 0.41 0.00 41 1017.3
20260507061215 10 252 0.0 0.0 0.00 0.41 0.00 41 1017.4
20260507060658 10 241 0.0 0.0 0.00 0.41 0.00 42 1017.3
20260507060140 10 251 0.0 0.0 0.00 0.41 0.00 42 1017.3
20260507055639 10 251 0.0 0.0 0.00 0.41 0.41 41 1017.4
20260507055148 10 250 0.0 0.0 0.00 0.41 0.41 41 1017.3
20260507054642 11 245 0.0 0.0 0.00 0.41 0.41 40 1017.3
20260507054134 11 234 0.0 1.6 0.00 0.41 0.41 39 1017.2
20260507053617 11 206 1.6 6.4 0.00 0.41 0.41 39 1017.2
20260507053126 11 206 1.6 4.8 0.00 0.41 0.41 40 1017.2
20260507052624 10 224 0.0 4.8 0.00 0.41 0.41 41 1017.3
20260507052114 10 61 0.0 1.6 0.00 0.41 0.41 42 1017.3
20260507051622 10 61 0.0 0.0 0.00 0.41 0.41 43 1017.3
20260507051108 10 61 0.0 0.0 0.00 0.41 0.41 43 1017.2
20260507050604 10 303 0.0 0.0 0.00 0.41 0.41 43 1017.3
20260507044816 11 303 0.0 0.0 0.00 0.41 0.41 39 1017.5
20260507044320 11 303 0.0 0.0 0.00 0.41 0.41 39 1017.5
20260507043820 11 303 0.0 0.0 0.00 0.41 0.41 39 1017.5
20260507043322 11 303 0.0 0.0 0.00 0.41 0.41 38 1017.3
20260507042823 11 303 0.0 0.0 0.00 0.41 0.41 38 1017.3
20260507042322 11 303 0.0 0.0 0.00 0.41 0.41 37 1017.3
20260507041824 11 303 0.0 0.0 0.00 0.41 0.41 37 1017.3
20260507041310 12 304 0.0 0.0 0.00 0.41 0.41 35 1017.3
20260507040819 12 270 0.0 0.0 0.00 0.41 0.41 35 1017.2
20260507040300 12 270 0.0 0.0 0.00 0.41 0.41 35 1017.3
20260507035804 12 270 0.0 0.0 0.00 0.41 0.41 35 1017.3
20260507035307 12 261 0.0 1.6 0.00 0.41 0.41 34 1017.3
20260507034128 12 271 0.0 0.0 0.00 0.41 0.41 35 1017.3
20260507033631 12 271 0.0 0.0 0.00 0.41 0.41 34 1017.3
20260507033120 12 271 0.0 0.0 0.00 0.41 0.41 34 1017.2
20260507032628 12 268 0.0 0.0 0.00 0.41 0.41 33 1017.1
20260507032115 12 263 0.0 0.0 0.00 0.41 0.41 33 1017.1
20260507031557 12 256 0.0 0.0 0.00 0.41 0.41 33 1016.9
20260507031046 12 256 0.0 0.0 0.00 0.41 0.41 32 1016.8
20260507025915 13 267 0.0 0.0 0.00 0.41 0.41 33 1016.7
20260507025418 13 322 0.0 0.0 0.00 0.41 0.41 31 1016.7
20260507024919 13 322 0.0 0.0 0.00 0.41 0.41 32 1016.7
20260507024403 13 322 0.0 0.0 0.00 0.41 0.41 31 1016.7
20260507023904 13 322 0.0 0.0 0.00 0.41 0.41 29 1016.8
20260507023345 14 322 0.0 0.0 0.00 0.41 0.41 28 1016.7
20260507022831 14 322 0.0 0.0 0.00 0.41 0.41 28 1016.8
20260507022338 15 322 0.0 0.0 0.00 0.41 0.41 28 1016.8
20260507021843 15 322 0.0 0.0 0.00 0.41 0.41 25 1016.8
20260507021350 15 322 0.0 0.0 0.00 0.41 0.41 24 1016.8
20260507020831 16 322 0.0 0.0 0.00 0.41 0.41 24 1016.8
20260507020329 16 335 0.0 0.0 0.00 0.41 0.41 24 1016.7
20260507015147 16 340 0.0 3.2 0.00 0.41 0.41 22 1016.8
20260507014645 16 337 0.0 1.6 0.00 0.41 0.41 24 1016.9
20260507014137 16 346 0.0 1.6 0.00 0.41 0.41 22 1016.9
20260507013636 16 328 0.0 0.0 0.00 0.41 0.41 23 1016.9
20260507013133 16 304 0.0 0.0 0.00 0.41 0.41 23 1017.0
20260507012619 16 303 0.0 0.0 0.00 0.41 0.41 23 1016.9
20260507012117 16 304 0.0 0.0 0.00 0.41 0.41 23 1016.9
20260507010445 17 310 0.0 0.0 0.00 0.41 0.41 22 1017.0
20260507005310 17 324 0.0 6.4 0.00 0.41 0.41 23 1017.1
20260507004752 17 290 0.0 0.0 0.00 0.41 0.41 23 1017.0
20260507004250 17 277 0.0 4.8 0.00 0.41 0.41 23 1017.1
20260507003735 17 314 0.0 3.2 0.00 0.41 0.41 23 1017.0
20260507003244 17 279 0.0 0.0 0.00 0.41 0.41 23 1017.1
20260507002735 17 257 1.6 11.3 0.00 0.41 0.41 22 1017.1
20260507002242 17 261 3.2 11.3 0.00 0.41 0.41 22 1017.1
20260507001746 17 330 3.2 11.3 0.00 0.41 0.41 22 1017.0
20260507001240 17 308 3.2 9.7 0.00 0.41 0.41 23 1016.9
20260507000723 17 354 3.2 9.7 0.00 0.41 0.41 23 1016.9
20260507000229 17 334 3.2 9.7 0.00 0.41 0.41 22 1016.8
20260506235107 17 331 1.6 12.9 0.00 0.41 0.41 22 1016.9
20260506233945 17 341 3.2 16.1 0.00 0.41 0.41 21 1017.0
20260506233426 17 62 3.2 16.1 0.00 0.41 0.41 22 1017.0
20260506232907 17 322 4.8 16.1 0.00 0.41 0.41 22 1017.0
20260506232352 17 318 4.8 14.5 0.00 0.41 0.41 23 1016.9
20260506231850 17 327 3.2 14.5 0.00 0.41 0.41 24 1016.9
20260506230707 17 305 3.2 11.3 0.00 0.41 0.41 22 1017.0
20260506230202 18 336 1.6 11.3 0.00 0.41 0.41 21 1017.0
20260506225704 18 307 1.6 11.3 0.00 0.41 0.41 23 1017.1
20260506224528 17 272 1.6 19.3 0.00 0.41 0.41 23 1017.1
20260506224034 17 261 3.2 19.3 0.00 0.41 0.41 23 1017.1
20260506223524 17 310 3.2 19.3 0.00 0.41 0.41 23 1017.1
20260506223027 17 300 3.2 16.1 0.00 0.41 0.41 23 1017.3
20260506222532 17 297 4.8 25.7 0.00 0.41 0.41 24 1017.3
20260506222035 17 308 4.8 25.7 0.00 0.41 0.41 23 1017.4
20260506215621 17 263 4.8 19.3 0.00 0.43 0.41 23 1017.5
20260506215129 17 308 4.8 20.9 0.00 0.43 0.41 24 1017.6
20260506214630 16 305 6.4 20.9 0.00 0.43 0.41 24 1017.6
20260506213508 16 313 1.6 22.5 0.00 0.43 0.41 24 1017.8
20260506213014 16 301 4.8 22.5 0.00 0.43 0.41 25 1017.9
20260506212520 16 272 6.4 22.5 0.00 0.43 0.41 25 1018.0
20260506212028 16 344 3.2 16.1 0.00 0.43 0.41 26 1018.0
20260506211531 16 330 3.2 16.1 0.00 0.43 0.41 24 1018.1
20260506211040 16 253 3.2 16.1 0.00 0.43 0.41 26 1018.0
20260506205905 16 341 3.2 14.5 0.00 0.43 0.41 26 1017.9
20260506205352 16 350 1.6 14.5 0.00 0.43 0.41 25 1018.1
20260506204234 16 339 1.6 17.7 0.00 0.43 0.41 26 1018.0
20260506203721 16 303 3.2 17.7 0.00 0.43 0.41 27 1018.1
20260506203224 16 340 1.6 17.7 0.00 0.43 0.41 27 1018.1
20260506202723 16 287 3.2 16.1 0.00 0.43 0.41 27 1018.1
20260506202215 15 296 3.2 16.1 0.00 0.43 0.41 29 1018.1
20260506201703 15 20 1.6 14.5 0.00 0.43 0.41 26 1018.1
20260506201154 15 320 3.2 14.5 0.00 0.43 0.41 28 1018.2
20260506200636 15 307 3.2 14.5 0.00 0.43 0.41 26 1018.2
20260506200127 16 258 3.2 14.5 0.00 0.43 0.41 27 1018.2
20260506195029 15 310 1.6 17.7 0.00 0.43 0.41 28 1018.2
20260506193908 15 332 3.2 17.7 0.00 0.43 0.41 28 1018.0
20260506192755 15 320 6.4 22.5 0.00 0.43 0.41 30 1018.1
20260506191601 15 357 8.0 27.4 0.00 0.43 0.41 25 1018.0
20260506191052 14 344 8.0 27.4 0.00 0.43 0.41 25 1018.0
20260506190543 14 356 9.7 27.4 0.00 0.43 0.41 24 1018.1
20260506190036 14 321 9.7 27.4 0.00 0.43 0.41 24 1018.1
20260506185517 14 329 8.0 20.9 0.00 0.43 0.41 25 1018.0
20260506185001 13 324 6.4 20.9 0.00 0.43 0.41 26 1018.1
20260506183852 13 349 8.0 20.9 0.00 0.43 0.41 26 1018.3
20260506183359 13 322 4.8 16.1 0.00 0.43 0.41 25 1018.4
20260506182901 13 341 3.2 14.5 0.00 0.43 0.41 28 1018.3
20260506182350 13 335 6.4 14.5 0.00 0.43 0.41 28 1018.4
20260506181224 13 343 4.8 14.5 0.00 0.43 0.41 30 1018.3
20260506180732 13 350 6.4 14.5 0.00 0.43 0.41 30 1018.4
20260506180224 13 323 8.0 22.5 0.00 0.43 0.41 28 1018.4
20260506175730 12 315 8.0 22.5 0.00 0.43 0.41 27 1018.3
20260506175236 12 21 8.0 22.5 0.00 0.43 0.41 26 1018.3
20260506174735 12 73 8.0 22.5 0.00 0.43 0.41 23 1018.3
20260506174239 12 334 6.4 20.9 0.00 0.43 0.41 25 1018.2
20260506173729 12 329 8.0 20.9 0.00 0.43 0.41 26 1018.3
20260506173216 12 346 6.4 20.9 0.00 0.43 0.41 29 1018.2
20260506172717 12 70 4.8 17.7 0.00 0.43 0.41 29 1018.1
20260506172220 12 319 6.4 17.7 0.00 0.43 0.41 29 1018.0
20260506171721 12 324 6.4 20.9 0.00 0.43 0.41 30 1018.0
20260506171209 12 337 6.4 20.9 0.00 0.43 0.41 30 1018.0
20260506170714 12 341 6.4 20.9 0.00 0.43 0.41 30 1018.0
20260506170201 12 336 6.4 20.9 0.00 0.43 0.41 33 1017.8
20260506165654 12 358 6.4 16.1 0.00 0.43 0.41 31 1017.8
20260506165154 12 336 4.8 16.1 0.00 0.43 0.41 32 1017.6
20260506164638 12 336 6.4 14.5 0.00 0.43 0.41 34 1017.7
20260506164126 12 339 6.4 14.5 0.00 0.43 0.41 30 1017.5
20260506163626 12 77 6.4 14.5 0.00 0.43 0.41 30 1017.4
20260506163110 11 343 6.4 16.1 0.00 0.43 0.41 34 1017.4
20260506162618 11 338 8.0 16.1 0.00 0.43 0.41 34 1017.3
20260506161437 11 346 8.0 17.7 0.00 0.43 0.41 34 1017.1
20260506160921 11 343 8.0 17.7 0.00 0.43 0.41 33 1017.0
20260506160408 11 14 8.0 17.7 0.00 0.43 0.41 33 1017.0
20260506155901 11 321 8.0 16.1 0.00 0.43 0.41 32 1016.9
20260506155411 11 45 8.0 16.1 0.00 0.43 0.41 39 1016.9
20260506154904 11 358 4.8 16.1 0.00 0.43 0.41 39 1016.7
20260506154354 11 339 4.8 19.3 0.00 0.43 0.41 39 1016.6
20260506153855 11 324 6.4 19.3 0.00 0.43 0.41 38 1016.6
20260506153346 10 326 8.0 19.3 0.00 0.43 0.41 38 1016.5
20260506152836 11 350 8.0 19.3 0.00 0.43 0.41 40 1016.5
20260506152321 10 335 8.0 16.1 0.00 0.43 0.41 39 1016.5
20260506151815 11 20 6.4 19.3 0.00 0.43 0.41 40 1016.4
20260506151302 11 352 8.0 19.3 0.00 0.43 0.41 40 1016.4
20260506150118 10 348 8.0 19.3 0.00 0.43 0.41 38 1016.2
20260506145604 11 343 4.8 14.5 0.00 0.43 0.41 38 1016.1
20260506145111 11 315 4.8 12.9 0.00 0.43 0.41 46 1015.8
20260506144612 11 341 4.8 12.9 0.00 0.43 0.41 45 1015.9
20260506144100 10 337 4.8 11.3 0.00 0.43 0.41 49 1015.9
20260506143547 10 327 6.4 11.3 0.00 0.43 0.41 49 1015.9
20260506143046 10 329 4.8 11.3 0.00 0.43 0.41 48 1015.7
20260506142531 10 324 3.2 9.7 0.00 0.43 0.41 48 1015.8
20260506142036 10 330 1.6 6.4 0.00 0.43 0.41 51 1015.6
20260506141522 10 334 1.6 6.4 0.00 0.43 0.41 49 1015.5
20260506141024 10 322 0.0 6.4 0.00 0.43 0.41 51 1015.4
20260506140527 10 334 0.0 0.0 0.00 0.43 0.41 54 1015.5
20260506134731 8 334 0.0 0.0 0.00 0.43 0.41 57 1015.4
20260506133619 7 328 0.0 0.0 0.00 0.43 0.41 65 1015.3
20260506133127 7 328 0.0 0.0 0.00 0.43 0.41 68 1015.2
20260506132626 6 328 0.0 0.0 0.00 0.43 0.41 71 1015.1
20260506131452 5 290 0.0 0.0 0.00 0.43 0.41 75 1014.7
20260506130936 5 294 0.0 0.0 0.00 0.43 0.41 75 1014.5
20260506130418 5 296 0.0 0.0 0.00 0.43 0.41 75 1014.5
20260506125305 4 266 0.0 0.0 0.00 0.43 0.41 76 1014.1
20260506124750 5 269 0.0 0.0 0.00 0.43 0.41 75 1014.1
20260506124248 5 270 0.0 0.0 0.00 0.43 0.41 74 1014.1
20260506123736 5 270 0.0 0.0 0.00 0.43 0.41 72 1013.9
20260506123241 5 270 0.0 0.0 0.00 0.43 0.41 71 1013.8
20260506122728 5 270 0.0 0.0 0.00 0.43 0.41 70 1013.8
20260506115649 6 268 0.0 0.0 0.00 0.43 0.41 65 1013.5
20260506114524 6 269 0.0 0.0 0.00 0.43 0.41 65 1013.5
20260506114007 6 239 0.0 0.0 0.00 0.43 0.41 64 1013.4
20260506112824 6 267 0.0 4.8 0.00 0.43 0.41 65 1013.4
20260506111654 6 265 0.0 0.0 0.00 0.43 0.41 64 1013.2
20260506111140 6 265 0.0 0.0 0.00 0.43 0.41 63 1013.1
20260506110639 6 222 0.0 9.7 0.00 0.43 0.41 62 1013.2
20260506110134 6 353 0.0 9.7 0.00 0.43 0.41 62 1013.2
20260506105637 6 197 1.6 16.1 0.00 0.43 0.41 61 1013.0
20260506105121 6 89 3.2 16.1 0.00 0.43 0.41 62 1013.1
20260506104001 7 67 4.8 20.9 0.00 0.43 0.41 60 1013.2
20260506103452 7 35 6.4 20.9 0.00 0.43 0.41 60 1013.0
20260506103002 7 14 4.8 20.9 0.00 0.46 0.41 60 1013.0
20260506102507 7 121 3.2 19.3 0.00 0.46 0.41 61 1012.9
20260506102006 7 78 3.2 14.5 0.00 0.46 0.41 60 1012.8
20260506100829 7 168 1.6 16.1 0.00 0.46 0.41 63 1012.7
20260506100315 7 80 1.6 16.1 0.00 0.46 0.41 63 1012.4
20260506095808 6 81 1.6 16.1 0.00 0.46 0.41 65 1012.3
20260506095248 6 61 1.6 12.9 0.00 0.46 0.41 67 1012.1
20260506094757 6 116 1.6 12.9 0.00 0.46 0.41 66 1012.1
20260506094250 6 38 3.2 12.9 0.00 0.46 0.41 68 1011.7
20260506093747 6 22 3.2 12.9 0.00 0.46 0.41 70 1011.7
20260506093251 6 17 1.6 12.9 0.00 0.46 0.41 70 1011.6
20260506092124 6 4 3.2 11.3 0.00 0.46 0.41 74 1011.4
20260506091622 6 101 1.6 11.3 0.00 0.46 0.41 78 1011.2
20260506091114 5 116 1.6 11.3 0.00 0.46 0.41 80 1011.2
20260506090605 5 156 1.6 11.3 0.10 0.46 0.41 83 1011.0
20260506090115 5 68 1.6 11.3 0.13 0.46 0.41 83 1011.0
20260506085620 5 133 1.6 11.3 0.23 0.46 0.41 84 1010.8
20260506085116 5 99 1.6 11.3 0.23 0.41 0.41 84 1010.9
20260506084601 6 221 1.6 16.1 0.30 0.41 0.38 84 1010.8
20260506084107 6 82 1.6 16.1 0.51 0.41 0.33 83 1010.4
20260506083613 6 30 4.8 27.4 0.97 0.36 0.33 81 1010.3
20260506083111 7 119 6.4 27.4 0.64 0.28 0.25 78 1010.1
20260506082555 8 357 8.0 27.4 1.88 0.20 0.20 74 1009.8
20260506082050 10 80 3.2 27.4 1.60 0.08 0.05 71 1009.6
20260506081552 11 334 0.0 8.0 0.00 0.05 0.00 74 1009.0
20260506080411 11 178 0.0 0.0 0.00 0.05 0.00 73 1008.2